Home > Time Zones > World Clock > Weather > Togo > Lome > Past weeks

Flag for Togo Weather past 2 weeks in Lome, Togo

Now
90 °F

Passing clouds.


Feels Like: 105 °F
Forecast: N/A
Wind: 16 mph from South

Location: Lome Airport

Current Time: Apr 25, 2015 at 4:41:18 PM

Latest Report: Apr 25, 2015 at 4:00 PM


Visibility: N/A

Pressure: 29.86 "Hg

Humidity: 71%

Dew point: 79 °F

Location of LomeLocation

Historic Weather in Lome — Graph

°F

Lome temperature yesterday

Maximum temperature yesterday: 90 °F (at 11:30 AM)
Minimum temperature yesterday: 79 °F (at 10:00 PM)
Average temperature yesterday: 85 °F

Past Weeks' High & Low Weather Summary

 TemperatureHumidityPressure
High93 °F (Apr 25, 12:30 PM)100% (Apr 11, 9:30 PM)29.98 "Hg (Apr 11, 9:30 PM)
Low75 °F (Apr 12, 3:30 AM)56% (Apr 17, 12:00 PM)29.77 "Hg (Apr 15, 3:00 PM)
Average85 °F81%29.86 "Hg
* Reported Apr 10 3:00 PM — Apr 25 3:30 PM, Lome, Weather by CustomWeather, © 2015

Note: Actual official high and low records may vary slightly from our data, if they occured in-between our weather recording intervals... More about our weather records

Advertising

Lome weather history for previous 24 hours

 ConditionsComfort  
Time TempWeatherWind HumidityBarometerVisibility
3:30 PM
Sat, Apr 25
90 °FPassing clouds.16 mph67%29.86 "HgN/A
3:00 PM91 °FPassing clouds.15 mph59%29.86 "HgN/A
2:30 PM91 °FPassing clouds.15 mph59%29.86 "HgN/A
2:00 PM91 °FPassing clouds.15 mph63%29.86 "HgN/A
1:30 PM93 °FPassing clouds.15 mph59%29.89 "HgN/A
1:00 PM91 °FPassing clouds.14 mph63%29.89 "HgN/A
12:30 PM93 °FPassing clouds.13 mph59%29.89 "HgN/A
12:00 PM91 °FPassing clouds.13 mph59%29.89 "HgN/A
11:30 AM91 °FPassing clouds.13 mph59%29.92 "HgN/A
11:00 AM90 °FScattered clouds.13 mph63%29.92 "HgN/A
10:30 AM90 °FScattered clouds.15 mph63%29.95 "HgN/A
10:00 AM90 °FPassing clouds.13 mph59%29.92 "HgN/A
9:30 AM88 °FPassing clouds.13 mph62%29.92 "HgN/A
9:00 AM86 °FPassing clouds.7 mph66%29.92 "HgN/A
8:30 AM84 °FPassing clouds.3 mph66%29.92 "HgN/A
8:00 AM82 °FPassing clouds.2 mph79%29.92 "HgN/A
7:30 AM81 °FPassing clouds.3 mph84%29.92 "Hg5 mi
7:00 AM79 °FPassing clouds.No wind84%29.92 "Hg5 mi
6:30 AM79 °FPassing clouds.No wind84%29.89 "Hg5 mi
6:00 AM79 °FPassing clouds.2 mph79%29.89 "Hg5 mi
5:30 AM79 °FPassing clouds.1 mph79%29.89 "Hg5 mi
5:00 AM79 °FPassing clouds.3 mph79%29.89 "Hg5 mi
4:30 AM79 °FPassing clouds.5 mph79%29.86 "Hg5 mi
4:00 AM79 °FPassing clouds.6 mph79%29.86 "Hg5 mi
3:30 AM79 °FPassing clouds.5 mph84%29.86 "Hg5 mi
3:00 AM79 °FPassing clouds.3 mph84%29.86 "Hg5 mi
2:30 AM81 °FPassing clouds.5 mph79%29.86 "Hg5 mi
2:00 AM81 °FPassing clouds.2 mph74%29.86 "Hg5 mi
1:30 AM81 °FPassing clouds.2 mph79%29.86 "Hg5 mi
1:00 AM81 °FThunderstorms. Passing clouds.No wind79%29.86 "Hg5 mi
12:30 AM81 °FThunderstorms. Passing clouds.7 mph79%29.89 "Hg5 mi
12:00 AM81 °FThunderstorms. Passing clouds.7 mph74%29.92 "Hg5 mi
11:30 PM
Fri, Apr 24
81 °FThunderstorms. Passing clouds.12 mph70%29.95 "Hg5 mi
11:00 PM81 °FThunderstorms. Passing clouds.9 mph66%29.98 "Hg5 mi
10:30 PM79 °FThunderstorms. Passing clouds.8 mph70%29.95 "Hg5 mi
10:00 PM79 °FThunderstorms. Passing clouds.16 mph74%29.98 "Hg5 mi
9:30 PM84 °FThunderstorms. Passing clouds.7 mph79%29.98 "HgN/A
9:00 PM84 °FThunderstorms. Passing clouds.8 mph79%29.95 "HgN/A
8:30 PM84 °FThunderstorms. Passing clouds.10 mph79%29.92 "HgN/A
8:00 PM84 °FThunderstorms. Passing clouds.15 mph84%29.92 "HgN/A
7:30 PM86 °FPassing clouds.12 mph79%29.89 "HgN/A
7:00 PM86 °FPassing clouds.12 mph79%29.89 "HgN/A
6:30 PM86 °FPassing clouds.12 mph75%29.86 "HgN/A
6:00 PM86 °FPassing clouds.12 mph79%29.86 "HgN/A
5:30 PM86 °FPassing clouds.14 mph79%29.83 "HgN/A
5:00 PM88 °FPassing clouds.16 mph70%29.83 "HgN/A
4:30 PM88 °FPassing clouds.16 mph70%29.83 "HgN/A
4:00 PM88 °FPassing clouds.15 mph70%29.83 "HgN/A
Weather by CustomWeather, © 2015

See weather overviewHow to use our weather pages